| time (UTC) | temp C | wind direction | speed KPH | gust KPH | rain 1hr cm | rain 24hr cm | rain mn cm | humidity % | barometer mb |
| 20260510131329 | 7 | 4 | 0.0 | 0.0 | 0.00 | 1.60 | 0.00 | 70 | 1015.3 |
| 20260510130845 | 7 | 332 | 0.0 | 0.0 | 0.00 | 1.60 | 0.00 | 72 | 1015.2 |
| 20260510130342 | 6 | 4 | 0.0 | 0.0 | 0.00 | 1.60 | 0.00 | 73 | 1015.1 |
| 20260510130055 | 6 | 304 | 0.0 | 0.0 | 0.00 | 0.33 | 0.00 | 72 | 1015.4 |
| 20260510125841 | 6 | 342 | 0.0 | 0.0 | 0.00 | 1.60 | 0.00 | 72 | 1015.1 |
| 20260510125357 | 6 | 259 | 0.0 | 0.0 | 0.00 | 1.60 | 0.00 | 73 | 1015.1 |
| 20260510124830 | 6 | 338 | 0.0 | 0.0 | 0.00 | 1.60 | 0.00 | 74 | 1015.0 |
| 20260510124605 | 6 | 305 | 0.0 | 0.0 | 0.00 | 0.33 | 0.00 | 73 | 1015.4 |
| 20260510124329 | 6 | 303 | 0.0 | 0.0 | 0.00 | 1.60 | 0.00 | 74 | 1015.1 |
| 20260510123845 | 6 | 311 | 0.0 | 0.0 | 0.00 | 1.60 | 0.00 | 75 | 1015.0 |
| 20260510123342 | 6 | 359 | 0.0 | 0.0 | 0.00 | 1.60 | 0.00 | 74 | 1015.0 |
| 20260510123030 | 6 | 315 | 0.0 | 0.0 | 0.00 | 0.33 | 0.00 | 75 | 1015.3 |
| 20260510122840 | 6 | 350 | 0.0 | 0.0 | 0.00 | 1.60 | 0.00 | 75 | 1014.9 |
| 20260510122337 | 6 | 359 | 0.0 | 0.0 | 0.00 | 1.60 | 0.00 | 77 | 1014.9 |
| 20260510121834 | 6 | 319 | 0.0 | 0.0 | 0.00 | 1.60 | 0.00 | 77 | 1015.0 |
| 20260510121553 | 5 | 4 | 0.0 | 0.0 | 0.00 | 0.33 | 0.00 | 77 | 1015.2 |
| 20260510121331 | 5 | 308 | 0.0 | 0.0 | 0.00 | 1.60 | 0.00 | 78 | 1015.0 |
| 20260510120829 | 5 | 23 | 0.0 | 0.0 | 0.00 | 1.60 | 0.00 | 79 | 1014.9 |
| 20260510120345 | 5 | 4 | 0.0 | 0.0 | 0.00 | 1.60 | 0.00 | 79 | 1014.8 |
| 20260510120022 | 5 | 332 | 0.0 | 0.0 | 0.00 | 0.33 | 0.00 | 80 | 1015.0 |
| 20260510115841 | 5 | 335 | 0.0 | 0.0 | 0.00 | 1.70 | 0.00 | 81 | 1014.8 |
| 20260510115336 | 5 | 347 | 0.0 | 0.0 | 0.00 | 1.70 | 0.00 | 81 | 1014.7 |
| 20260510114833 | 4 | 330 | 0.0 | 0.0 | 0.00 | 1.70 | 0.00 | 82 | 1014.6 |
| 20260510114543 | 3 | 314 | 0.0 | 0.0 | 0.00 | 0.33 | 0.00 | 82 | 1014.8 |
| 20260510114329 | 4 | 314 | 0.0 | 0.0 | 0.00 | 1.70 | 0.00 | 82 | 1014.5 |
| 20260510113845 | 3 | 4 | 0.0 | 0.0 | 0.00 | 1.70 | 0.00 | 83 | 1014.3 |
| 20260510113343 | 3 | 339 | 0.0 | 0.0 | 0.00 | 1.70 | 0.00 | 83 | 1014.4 |
| 20260510113113 | 3 | 270 | 0.0 | 0.0 | 0.00 | 0.33 | 0.00 | 83 | 1014.6 |
| 20260510112840 | 3 | 301 | 0.0 | 0.0 | 0.00 | 1.70 | 0.00 | 83 | 1014.3 |
| 20260510112405 | 3 | 325 | 0.0 | 0.0 | 0.00 | 1.70 | 0.00 | 84 | 1014.4 |
| 20260510111841 | 3 | 302 | 0.0 | 0.0 | 0.00 | 1.70 | 0.00 | 84 | 1014.2 |
| 20260510111502 | 2 | 312 | 0.0 | 0.0 | 0.00 | 0.33 | 0.00 | 84 | 1014.4 |
| 20260510111338 | 3 | 312 | 0.0 | 0.0 | 0.00 | 1.70 | 0.00 | 84 | 1014.1 |
| 20260510110835 | 2 | 319 | 0.0 | 0.0 | 0.00 | 1.70 | 0.00 | 84 | 1014.0 |
| 20260510110349 | 2 | 318 | 0.0 | 0.0 | 0.00 | 1.70 | 0.00 | 84 | 1013.9 |
| 20260510110013 | 2 | 306 | 0.0 | 0.0 | 0.00 | 0.33 | 0.00 | 85 | 1014.0 |
| 20260510105840 | 2 | 306 | 0.0 | 0.0 | 0.00 | 1.70 | 0.00 | 84 | 1013.9 |
| 20260510105357 | 2 | 305 | 0.0 | 0.0 | 0.00 | 1.70 | 0.00 | 84 | 1013.7 |
| 20260510104854 | 2 | 305 | 0.0 | 0.0 | 0.00 | 1.70 | 0.00 | 84 | 1013.7 |
| 20260510104549 | 2 | 305 | 0.0 | 0.0 | 0.00 | 0.33 | 0.00 | 84 | 1013.9 |
| 20260510104328 | 2 | 305 | 0.0 | 0.0 | 0.00 | 1.70 | 0.00 | 84 | 1013.5 |
| 20260510103845 | 2 | 308 | 0.0 | 0.0 | 0.00 | 1.70 | 0.00 | 84 | 1013.4 |
| 20260510103342 | 2 | 295 | 0.0 | 0.0 | 0.00 | 1.70 | 0.00 | 84 | 1013.2 |
| 20260510103022 | 2 | 316 | 0.0 | 0.0 | 0.00 | 0.33 | 0.00 | 84 | 1013.3 |
| 20260510102840 | 2 | 315 | 0.0 | 0.0 | 0.00 | 1.70 | 0.00 | 84 | 1013.1 |
| 20260510102351 | 2 | 319 | 0.0 | 0.0 | 0.00 | 1.70 | 0.00 | 84 | 1013.0 |
| 20260510101828 | 2 | 322 | 0.0 | 0.0 | 0.00 | 1.70 | 0.00 | 84 | 1012.9 |
| 20260510101513 | 2 | 330 | 0.0 | 0.0 | 0.00 | 0.33 | 0.00 | 84 | 1013.1 |
| 20260510101344 | 2 | 330 | 0.0 | 0.0 | 0.00 | 1.70 | 0.00 | 84 | 1012.8 |
| 20260510100842 | 2 | 330 | 0.0 | 0.0 | 0.00 | 1.70 | 0.00 | 84 | 1012.8 |
| 20260510100340 | 2 | 330 | 0.0 | 0.0 | 0.00 | 1.70 | 0.00 | 84 | 1012.7 |
| 20260510100051 | 2 | 330 | 0.0 | 0.0 | 0.00 | 0.33 | 0.00 | 84 | 1012.9 |
| 20260510095857 | 2 | 330 | 0.0 | 0.0 | 0.00 | 1.70 | 0.00 | 84 | 1012.7 |
| 20260510095333 | 2 | 330 | 0.0 | 0.0 | 0.00 | 1.70 | 0.00 | 83 | 1012.4 |
| 20260510094831 | 2 | 330 | 0.0 | 0.0 | 0.00 | 1.70 | 0.00 | 83 | 1012.5 |
| 20260510094547 | 2 | 331 | 0.0 | 0.0 | 0.00 | 0.33 | 0.00 | 83 | 1012.7 |
| 20260510094329 | 2 | 331 | 0.0 | 0.0 | 0.00 | 1.70 | 0.00 | 83 | 1012.3 |
| 20260510093846 | 2 | 308 | 0.0 | 0.0 | 0.00 | 1.70 | 0.00 | 84 | 1012.2 |
| 20260510093342 | 2 | 308 | 0.0 | 0.0 | 0.00 | 1.70 | 0.00 | 84 | 1012.3 |
| 20260510093007 | 2 | 305 | 0.0 | 0.0 | 0.00 | 0.33 | 0.00 | 84 | 1012.3 |
| 20260510092839 | 2 | 354 | 0.0 | 0.0 | 0.00 | 1.70 | 0.00 | 84 | 1012.1 |
| 20260510092404 | 3 | 350 | 0.0 | 0.0 | 0.00 | 1.70 | 0.00 | 84 | 1012.0 |
| 20260510091858 | 3 | 350 | 0.0 | 0.0 | 0.00 | 1.70 | 0.00 | 84 | 1012.0 |
| 20260510091558 | 3 | 350 | 0.0 | 0.0 | 0.00 | 0.33 | 0.00 | 83 | 1012.2 |
| 20260510091403 | 3 | 350 | 0.0 | 0.0 | 0.00 | 1.70 | 0.00 | 83 | 1011.9 |
| 20260510090839 | 3 | 350 | 0.0 | 0.0 | 0.00 | 1.70 | 0.00 | 83 | 1011.7 |
| 20260510090338 | 3 | 350 | 0.0 | 0.0 | 0.00 | 1.70 | 0.00 | 83 | 1011.5 |
| 20260510090117 | 3 | 350 | 0.0 | 0.0 | 0.00 | 0.33 | 0.00 | 82 | 1011.6 |
| 20260510085835 | 3 | 350 | 0.0 | 0.0 | 0.00 | 1.70 | 0.00 | 82 | 1011.3 |
| 20260510085333 | 3 | 350 | 0.0 | 0.0 | 0.00 | 1.70 | 0.00 | 82 | 1011.2 |
| 20260510084829 | 3 | 359 | 0.0 | 0.0 | 0.00 | 1.70 | 0.00 | 82 | 1011.2 |
| 20260510084534 | 3 | 359 | 0.0 | 0.0 | 0.00 | 0.33 | 0.00 | 82 | 1011.3 |
| 20260510084342 | 3 | 354 | 0.0 | 0.0 | 0.00 | 1.70 | 0.00 | 82 | 1011.0 |
| 20260510083839 | 3 | 354 | 0.0 | 0.0 | 0.00 | 1.70 | 0.00 | 82 | 1011.0 |
| 20260510083403 | 3 | 347 | 0.0 | 0.0 | 0.00 | 1.70 | 0.00 | 81 | 1010.9 |
| 20260510083046 | 3 | 341 | 0.0 | 0.0 | 0.00 | 0.33 | 0.00 | 82 | 1011.1 |
| 20260510082840 | 3 | 328 | 0.0 | 0.0 | 0.00 | 1.70 | 0.00 | 82 | 1010.9 |
| 20260510082338 | 4 | 347 | 0.0 | 0.0 | 0.00 | 1.70 | 0.00 | 81 | 1010.8 |
| 20260510081836 | 4 | 347 | 0.0 | 0.0 | 0.00 | 1.70 | 0.00 | 82 | 1010.9 |
| 20260510081611 | 3 | 359 | 0.0 | 0.0 | 0.00 | 0.33 | 0.00 | 81 | 1011.0 |
| 20260510081403 | 4 | 4 | 0.0 | 0.0 | 0.00 | 1.70 | 0.00 | 82 | 1010.8 |
| 20260510080858 | 4 | 8 | 0.0 | 0.0 | 0.00 | 1.70 | 0.00 | 82 | 1010.8 |
| 20260510080335 | 4 | 18 | 0.0 | 0.0 | 0.00 | 1.70 | 0.00 | 82 | 1010.8 |
| 20260510080054 | 3 | 18 | 0.0 | 0.0 | 0.00 | 0.33 | 0.00 | 82 | 1010.9 |
| 20260510075828 | 4 | 18 | 0.0 | 0.0 | 0.00 | 1.70 | 0.00 | 82 | 1010.8 |
| 20260510075327 | 4 | 18 | 0.0 | 0.0 | 0.00 | 1.70 | 0.00 | 82 | 1010.6 |
| 20260510074844 | 4 | 18 | 0.0 | 0.0 | 0.00 | 1.70 | 0.00 | 82 | 1010.8 |
| 20260510074511 | 4 | 18 | 0.0 | 0.0 | 0.00 | 0.33 | 0.00 | 81 | 1010.7 |
| 20260510074341 | 4 | 18 | 0.0 | 0.0 | 0.00 | 1.70 | 0.00 | 81 | 1010.5 |
| 20260510073839 | 5 | 19 | 0.0 | 0.0 | 0.00 | 1.70 | 0.00 | 81 | 1010.5 |
| 20260510073336 | 5 | 20 | 0.0 | 0.0 | 0.00 | 1.70 | 0.00 | 81 | 1010.5 |
| 20260510073047 | 4 | 20 | 0.0 | 0.0 | 0.00 | 0.33 | 0.00 | 81 | 1010.6 |
| 20260510072834 | 5 | 20 | 0.0 | 0.0 | 0.00 | 1.70 | 0.00 | 81 | 1010.5 |
| 20260510072330 | 5 | 20 | 0.0 | 0.0 | 0.00 | 1.70 | 0.00 | 81 | 1010.6 |
| 20260510071846 | 5 | 21 | 0.0 | 0.0 | 0.00 | 1.70 | 0.00 | 81 | 1010.6 |
| 20260510071506 | 5 | 4 | 0.0 | 0.0 | 0.00 | 0.33 | 0.00 | 81 | 1010.7 |
| 20260510071343 | 5 | 4 | 0.0 | 0.0 | 0.00 | 1.70 | 0.00 | 80 | 1010.6 |
| 20260510070835 | 5 | 33 | 0.0 | 0.0 | 0.00 | 1.70 | 0.00 | 80 | 1010.6 |
| 20260510070333 | 5 | 34 | 0.0 | 0.0 | 0.00 | 1.70 | 0.00 | 80 | 1010.5 |
| 20260510070006 | 5 | 349 | 0.0 | 0.0 | 0.00 | 0.43 | 0.00 | 79 | 1010.6 |
| 20260510065831 | 5 | 349 | 0.0 | 0.0 | 0.00 | 2.21 | 0.00 | 79 | 1010.4 |
| 20260510065349 | 5 | 354 | 0.0 | 0.0 | 0.00 | 2.21 | 0.00 | 79 | 1010.2 |
| 20260510064846 | 6 | 16 | 0.0 | 0.0 | 0.00 | 2.21 | 0.00 | 78 | 1010.3 |
| 20260510064543 | 5 | 4 | 0.0 | 0.0 | 0.00 | 0.43 | 0.00 | 78 | 1010.4 |
| 20260510064343 | 6 | 8 | 0.0 | 0.0 | 0.00 | 2.21 | 0.00 | 78 | 1010.4 |
| 20260510063908 | 6 | 16 | 0.0 | 0.0 | 0.00 | 2.21 | 0.00 | 78 | 1010.4 |
| 20260510063346 | 6 | 16 | 0.0 | 0.0 | 0.00 | 2.21 | 0.00 | 78 | 1010.3 |
| 20260510063044 | 6 | 25 | 0.0 | 0.0 | 0.00 | 0.43 | 0.00 | 78 | 1010.3 |
| 20260510062843 | 6 | 347 | 0.0 | 0.0 | 0.00 | 2.21 | 0.00 | 78 | 1010.3 |
| 20260510062409 | 6 | 332 | 0.0 | 0.0 | 0.00 | 2.21 | 0.00 | 79 | 1010.3 |
| 20260510061841 | 6 | 335 | 0.0 | 0.0 | 0.00 | 2.21 | 0.00 | 79 | 1010.4 |
| 20260510061558 | 6 | 31 | 0.0 | 0.0 | 0.00 | 0.43 | 0.00 | 79 | 1010.3 |
| 20260510061340 | 6 | 350 | 0.0 | 0.0 | 0.00 | 2.21 | 0.00 | 80 | 1010.2 |
| 20260510060858 | 6 | 354 | 0.0 | 0.0 | 0.00 | 2.21 | 0.00 | 80 | 1010.2 |
| 20260510060336 | 6 | 354 | 0.0 | 0.0 | 0.00 | 2.21 | 0.00 | 81 | 1010.1 |
| 20260510055854 | 6 | 342 | 0.0 | 0.0 | 0.00 | 2.21 | 0.00 | 81 | 1010.1 |
| 20260510055331 | 6 | 359 | 0.0 | 0.0 | 0.00 | 2.21 | 0.00 | 82 | 1010.0 |
| 20260510054847 | 6 | 359 | 0.0 | 0.0 | 0.00 | 2.21 | 0.00 | 82 | 1009.7 |
| 20260510054600 | 6 | 34 | 0.0 | 0.0 | 0.00 | 0.43 | 0.00 | 82 | 1009.9 |
| 20260510054345 | 6 | 34 | 0.0 | 0.0 | 0.00 | 2.21 | 0.00 | 82 | 1009.7 |
| 20260510053842 | 6 | 34 | 0.0 | 0.0 | 0.00 | 2.21 | 0.00 | 82 | 1009.7 |
| 20260510053338 | 6 | 37 | 0.0 | 0.0 | 0.00 | 2.21 | 0.00 | 81 | 1009.6 |
| 20260510053016 | 6 | 37 | 0.0 | 0.0 | 0.00 | 0.43 | 0.00 | 81 | 1009.7 |
| 20260510052831 | 6 | 37 | 0.0 | 0.0 | 0.00 | 2.21 | 0.00 | 81 | 1009.6 |
| 20260510052348 | 6 | 37 | 0.0 | 0.0 | 0.00 | 2.21 | 0.00 | 81 | 1009.6 |
| 20260510051844 | 6 | 37 | 0.0 | 0.0 | 0.00 | 2.21 | 0.00 | 80 | 1009.5 |
| 20260510051551 | 6 | 37 | 0.0 | 0.0 | 0.00 | 0.43 | 0.00 | 80 | 1009.6 |
| 20260510051340 | 6 | 38 | 0.0 | 0.0 | 0.00 | 2.21 | 0.00 | 80 | 1009.5 |
| 20260510050838 | 6 | 73 | 0.0 | 0.0 | 0.00 | 2.21 | 0.00 | 79 | 1009.4 |
| 20260510050335 | 7 | 73 | 0.0 | 0.0 | 0.00 | 2.21 | 0.00 | 79 | 1009.4 |
| 20260510050006 | 6 | 73 | 0.0 | 0.0 | 0.00 | 0.43 | 0.00 | 78 | 1009.4 |
| 20260510045830 | 7 | 73 | 0.0 | 0.0 | 0.00 | 2.21 | 0.00 | 78 | 1009.3 |
| 20260510045347 | 7 | 73 | 0.0 | 0.0 | 0.00 | 2.21 | 0.00 | 78 | 1009.3 |
| 20260510044845 | 7 | 73 | 0.0 | 0.0 | 0.00 | 2.21 | 0.00 | 78 | 1009.2 |
| 20260510044551 | 7 | 73 | 0.0 | 0.0 | 0.00 | 0.43 | 0.00 | 78 | 1009.1 |
| 20260510044343 | 7 | 73 | 0.0 | 0.0 | 0.00 | 2.21 | 0.00 | 78 | 1009.1 |
| 20260510043840 | 7 | 73 | 0.0 | 0.0 | 0.00 | 2.21 | 0.00 | 77 | 1009.0 |
| 20260510043334 | 7 | 73 | 0.0 | 0.0 | 0.00 | 2.21 | 0.00 | 77 | 1008.7 |
| 20260510043058 | 7 | 75 | 0.0 | 0.0 | 0.00 | 0.43 | 0.00 | 76 | 1008.7 |
| 20260510042830 | 7 | 51 | 0.0 | 0.0 | 0.00 | 2.21 | 0.00 | 76 | 1008.7 |
| 20260510042347 | 7 | 59 | 0.0 | 0.0 | 0.00 | 2.21 | 0.00 | 77 | 1008.8 |
| 20260510041845 | 7 | 62 | 0.0 | 0.0 | 0.00 | 2.21 | 0.00 | 76 | 1008.6 |
| 20260510041529 | 7 | 42 | 0.0 | 0.0 | 0.00 | 0.43 | 0.00 | 76 | 1008.6 |
| 20260510041340 | 8 | 37 | 0.0 | 0.0 | 0.00 | 2.21 | 0.00 | 76 | 1008.6 |
| 20260510040837 | 8 | 359 | 0.0 | 0.0 | 0.00 | 2.21 | 0.00 | 75 | 1008.5 |
| 20260510040335 | 8 | 81 | 0.0 | 0.0 | 0.00 | 2.21 | 0.00 | 75 | 1008.4 |
| 20260510040053 | 8 | 45 | 0.0 | 0.0 | 0.00 | 0.43 | 0.00 | 75 | 1008.5 |
| 20260510035831 | 8 | 32 | 0.0 | 0.0 | 0.00 | 2.21 | 0.43 | 75 | 1008.6 |
| 20260510035348 | 8 | 26 | 0.0 | 0.0 | 0.00 | 2.21 | 0.43 | 75 | 1008.5 |
| 20260510034845 | 8 | 60 | 0.0 | 0.0 | 0.00 | 2.21 | 0.43 | 75 | 1008.1 |
| 20260510034525 | 8 | 62 | 0.0 | 0.0 | 0.00 | 0.43 | 0.43 | 75 | 1008.2 |
| 20260510034407 | 8 | 41 | 0.0 | 0.0 | 0.00 | 2.21 | 0.43 | 75 | 1008.3 |
| 20260510033843 | 8 | 345 | 0.0 | 0.0 | 0.00 | 2.21 | 0.43 | 74 | 1008.8 |
| 20260510033340 | 8 | 16 | 0.0 | 0.0 | 0.00 | 2.21 | 0.43 | 74 | 1008.2 |
| 20260510033029 | 8 | 64 | 0.0 | 0.0 | 0.00 | 0.43 | 0.43 | 74 | 1007.9 |
| 20260510032837 | 8 | 70 | 0.0 | 0.0 | 0.00 | 2.21 | 0.43 | 73 | 1007.8 |
| 20260510032402 | 9 | 62 | 0.0 | 0.0 | 0.00 | 2.21 | 0.43 | 73 | 1007.8 |
| 20260510031839 | 9 | 64 | 0.0 | 0.0 | 0.00 | 2.21 | 0.43 | 74 | 1007.7 |
| 20260510031539 | 9 | 60 | 0.0 | 0.0 | 0.00 | 0.43 | 0.43 | 74 | 1007.5 |
| 20260510031336 | 9 | 308 | 0.0 | 0.0 | 0.00 | 2.21 | 0.43 | 75 | 1007.6 |
| 20260510030834 | 10 | 34 | 0.0 | 0.0 | 0.00 | 2.21 | 0.43 | 76 | 1007.7 |
| 20260510030331 | 10 | 359 | 0.0 | 0.0 | 0.00 | 2.21 | 0.43 | 80 | 1007.8 |
| 20260510030006 | 10 | 41 | 0.0 | 0.0 | 0.00 | 0.43 | 0.43 | 81 | 1007.6 |
| 20260510025847 | 10 | 53 | 0.0 | 0.0 | 0.00 | 2.21 | 0.43 | 82 | 1007.5 |
| 20260510025344 | 10 | 32 | 0.0 | 0.0 | 0.00 | 2.21 | 0.43 | 82 | 1007.4 |
| 20260510024836 | 10 | 63 | 0.0 | 0.0 | 0.00 | 2.21 | 0.43 | 82 | 1007.3 |
| 20260510024538 | 10 | 297 | 0.0 | 0.0 | 0.00 | 0.43 | 0.43 | 82 | 1007.2 |
| 20260510024333 | 10 | 50 | 0.0 | 0.0 | 0.00 | 2.21 | 0.43 | 82 | 1007.1 |
| 20260510023849 | 10 | 21 | 0.0 | 0.0 | 0.00 | 2.21 | 0.43 | 82 | 1007.0 |
| 20260510023344 | 10 | 9 | 0.0 | 0.0 | 0.00 | 2.21 | 0.43 | 82 | 1006.9 |
| 20260510023104 | 10 | 4 | 0.0 | 0.0 | 0.00 | 0.43 | 0.43 | 82 | 1006.8 |
| 20260510022840 | 10 | 50 | 0.0 | 0.0 | 0.00 | 2.21 | 0.43 | 82 | 1006.8 |
| 20260510022337 | 11 | 4 | 0.0 | 0.0 | 0.00 | 2.21 | 0.43 | 83 | 1006.6 |
| 20260510021833 | 11 | 8 | 0.0 | 0.0 | 0.00 | 2.21 | 0.43 | 84 | 1006.8 |
| 20260510021515 | 10 | 345 | 0.0 | 0.0 | 0.00 | 0.43 | 0.43 | 85 | 1006.6 |
| 20260510021331 | 11 | 354 | 0.0 | 0.0 | 0.00 | 2.21 | 0.43 | 87 | 1006.6 |
| 20260510020848 | 11 | 265 | 0.0 | 0.0 | 0.00 | 2.21 | 0.43 | 89 | 1006.3 |
| 20260510020403 | 11 | 16 | 0.0 | 0.0 | 0.00 | 2.21 | 0.43 | 90 | 1006.4 |
| 20260510020029 | 10 | 354 | 0.0 | 0.0 | 0.00 | 0.43 | 0.43 | 91 | 1006.3 |
| 20260510015835 | 11 | 354 | 0.0 | 0.0 | 0.00 | 2.21 | 0.43 | 91 | 1006.4 |
| 20260510015331 | 11 | 321 | 0.0 | 0.0 | 0.00 | 2.21 | 0.43 | 93 | 1006.2 |
| 20260510014847 | 11 | 359 | 0.0 | 0.0 | 0.00 | 2.21 | 0.43 | 93 | 1006.2 |
| 20260510014553 | 10 | 359 | 0.0 | 0.0 | 0.00 | 0.43 | 0.43 | 93 | 1006.1 |
| 20260510014345 | 11 | 320 | 0.0 | 0.0 | 0.00 | 2.21 | 0.43 | 93 | 1006.1 |
| 20260510013839 | 11 | 291 | 0.0 | 0.0 | 0.00 | 2.21 | 0.43 | 93 | 1006.2 |
| 20260510013335 | 11 | 289 | 0.0 | 0.0 | 0.00 | 2.21 | 0.43 | 93 | 1005.9 |
| 20260510013014 | 10 | 289 | 0.0 | 0.0 | 0.00 | 0.43 | 0.43 | 93 | 1006.0 |
| 20260510012831 | 11 | 354 | 0.0 | 0.0 | 0.00 | 2.21 | 0.43 | 93 | 1005.9 |
| 20260510012348 | 11 | 15 | 0.0 | 0.0 | 0.00 | 2.21 | 0.43 | 93 | 1005.9 |
| 20260510011845 | 11 | 15 | 0.0 | 0.0 | 0.00 | 2.21 | 0.43 | 93 | 1005.7 |
| 20260510011555 | 11 | 15 | 0.0 | 0.0 | 0.00 | 0.43 | 0.43 | 92 | 1005.8 |
| 20260510011342 | 11 | 15 | 0.0 | 0.0 | 0.00 | 2.21 | 0.43 | 92 | 1005.7 |
| 20260510010839 | 11 | 15 | 0.0 | 0.0 | 0.00 | 2.21 | 0.43 | 92 | 1005.4 |
| 20260510010330 | 11 | 15 | 0.0 | 0.0 | 0.00 | 2.21 | 0.43 | 92 | 1005.4 |
| 20260510010014 | 11 | 15 | 0.0 | 0.0 | 0.00 | 0.43 | 0.43 | 91 | 1005.3 |
| 20260510005846 | 11 | 15 | 0.0 | 0.0 | 0.00 | 2.21 | 0.43 | 91 | 1005.3 |
| 20260510005345 | 11 | 15 | 0.0 | 0.0 | 0.00 | 2.21 | 0.43 | 91 | 1005.0 |
| 20260510004842 | 11 | 15 | 0.0 | 0.0 | 0.00 | 2.21 | 0.43 | 91 | 1005.0 |
| 20260510004547 | 11 | 15 | 0.0 | 0.0 | 0.00 | 0.43 | 0.43 | 91 | 1004.9 |
| 20260510004336 | 11 | 15 | 0.0 | 0.0 | 0.00 | 2.21 | 0.43 | 91 | 1005.0 |
| 20260510003856 | 11 | 15 | 0.0 | 0.0 | 0.00 | 2.21 | 0.43 | 91 | 1004.8 |
| 20260510003331 | 11 | 252 | 0.0 | 0.0 | 0.00 | 2.21 | 0.43 | 91 | 1004.8 |
| 20260510003048 | 11 | 251 | 0.0 | 0.0 | 0.00 | 0.43 | 0.43 | 91 | 1004.7 |
| 20260510002831 | 12 | 251 | 0.0 | 0.0 | 0.00 | 2.21 | 0.43 | 91 | 1004.7 |
| 20260510002347 | 12 | 251 | 0.0 | 0.0 | 0.00 | 2.21 | 0.43 | 91 | 1004.4 |
| 20260510001843 | 12 | 251 | 0.0 | 0.0 | 0.00 | 2.21 | 0.43 | 91 | 1004.3 |
| 20260510001507 | 11 | 252 | 0.0 | 0.0 | 0.00 | 0.43 | 0.43 | 91 | 1004.4 |
| 20260510001335 | 12 | 251 | 0.0 | 0.0 | 0.00 | 2.21 | 0.43 | 90 | 1004.4 |
| 20260510000830 | 12 | 251 | 0.0 | 0.0 | 0.00 | 2.21 | 0.43 | 90 | 1004.2 |
| 20260510000348 | 12 | 251 | 0.0 | 0.0 | 0.00 | 2.21 | 0.43 | 90 | 1004.2 |
| 20260510000043 | 12 | 251 | 0.0 | 0.0 | 0.00 | 0.43 | 0.43 | 90 | 1004.1 |
| 20260509235844 | 12 | 251 | 0.0 | 0.0 | 0.00 | 2.21 | 0.43 | 90 | 1004.2 |
| 20260509235341 | 12 | 251 | 0.0 | 0.0 | 0.00 | 2.21 | 0.43 | 90 | 1004.1 |
| 20260509234836 | 12 | 251 | 0.0 | 0.0 | 0.00 | 2.21 | 0.43 | 90 | 1004.1 |
| 20260509234637 | 12 | 251 | 0.0 | 0.0 | 0.00 | 0.43 | 0.43 | 90 | 1004.0 |
| 20260509234333 | 12 | 251 | 0.0 | 0.0 | 0.00 | 2.21 | 0.43 | 90 | 1004.1 |
| 20260509233830 | 12 | 251 | 0.0 | 0.0 | 0.00 | 2.21 | 0.43 | 91 | 1004.1 |
| 20260509233347 | 12 | 252 | 0.0 | 0.0 | 0.00 | 2.21 | 0.43 | 91 | 1004.0 |
| 20260509233026 | 12 | 251 | 0.0 | 0.0 | 0.00 | 0.43 | 0.43 | 90 | 1003.9 |
| 20260509232843 | 12 | 251 | 0.0 | 0.0 | 0.00 | 2.21 | 0.43 | 90 | 1003.9 |
| 20260509232403 | 12 | 252 | 0.0 | 0.0 | 0.00 | 2.21 | 0.43 | 90 | 1003.9 |
| 20260509231846 | 12 | 251 | 0.0 | 0.0 | 0.00 | 2.21 | 0.43 | 90 | 1003.8 |
| 20260509231505 | 12 | 252 | 0.0 | 0.0 | 0.00 | 0.43 | 0.43 | 90 | 1003.6 |
| 20260509231342 | 12 | 251 | 0.0 | 0.0 | 0.00 | 2.21 | 0.43 | 90 | 1003.7 |
| 20260509230838 | 12 | 251 | 0.0 | 0.0 | 0.00 | 2.21 | 0.43 | 90 | 1003.6 |
| 20260509230334 | 12 | 251 | 0.0 | 0.0 | 0.00 | 2.21 | 0.43 | 91 | 1003.4 |
| 20260509230042 | 12 | 251 | 0.0 | 0.0 | 0.00 | 0.43 | 0.43 | 91 | 1003.3 |
| 20260509225851 | 12 | 251 | 0.0 | 0.0 | 0.00 | 2.21 | 0.43 | 93 | 1003.3 |
| 20260509225346 | 12 | 251 | 0.0 | 0.0 | 0.00 | 2.21 | 0.43 | 93 | 1003.3 |
| 20260509224908 | 12 | 251 | 0.0 | 0.0 | 0.00 | 2.21 | 0.43 | 93 | 1003.3 |
| 20260509224535 | 11 | 251 | 0.0 | 0.0 | 0.00 | 0.43 | 0.43 | 94 | 1003.2 |
| 20260509224344 | 12 | 250 | 0.0 | 0.0 | 0.00 | 2.21 | 0.43 | 94 | 1003.1 |
| 20260509223905 | 12 | 251 | 0.0 | 0.0 | 0.00 | 2.21 | 0.43 | 94 | 1002.9 |
| 20260509223409 | 11 | 252 | 0.0 | 0.0 | 0.00 | 2.21 | 0.43 | 95 | 1002.8 |
| 20260509223008 | 11 | 249 | 0.0 | 0.0 | 0.00 | 0.43 | 0.43 | 95 | 1002.7 |
| 20260509222846 | 11 | 246 | 0.0 | 0.0 | 0.00 | 2.21 | 0.43 | 95 | 1002.7 |
| 20260509222343 | 11 | 247 | 0.0 | 0.0 | 0.00 | 2.21 | 0.43 | 95 | 1002.7 |
| 20260509221839 | 11 | 247 | 0.0 | 0.0 | 0.00 | 2.21 | 0.43 | 95 | 1002.6 |
| 20260509221546 | 11 | 247 | 0.0 | 0.0 | 0.00 | 0.43 | 0.43 | 95 | 1002.7 |
| 20260509221337 | 11 | 243 | 0.0 | 0.0 | 0.00 | 2.21 | 0.43 | 95 | 1002.7 |
| 20260509220852 | 11 | 255 | 0.0 | 0.0 | 0.00 | 2.21 | 0.43 | 95 | 1002.9 |
| 20260509220348 | 10 | 255 | 0.0 | 0.0 | 0.00 | 2.21 | 0.43 | 95 | 1003.0 |
| 20260509220044 | 10 | 256 | 0.0 | 0.0 | 0.03 | 0.43 | 0.43 | 95 | 1003.0 |
| 20260509215845 | 10 | 247 | 0.0 | 0.0 | 0.10 | 2.21 | 0.43 | 95 | 1003.1 |
| 20260509215338 | 10 | 249 | 0.0 | 0.0 | 0.20 | 2.21 | 0.43 | 94 | 1003.0 |
| 20260509214836 | 10 | 243 | 0.0 | 0.0 | 0.71 | 2.21 | 0.43 | 94 | 1003.2 |
| 20260509214519 | 9 | 233 | 0.0 | 0.0 | 0.23 | 0.43 | 0.43 | 94 | 1003.2 |
| 20260509214332 | 10 | 177 | 0.0 | 0.0 | 1.50 | 2.21 | 0.43 | 94 | 1003.1 |
| 20260509213848 | 10 | 254 | 0.0 | 0.0 | 1.60 | 2.21 | 0.43 | 93 | 1003.2 |
| 20260509213345 | 10 | 266 | 0.0 | 0.0 | 1.60 | 2.21 | 0.43 | 93 | 1003.2 |
| 20260509213050 | 9 | 266 | 0.0 | 0.0 | 0.33 | 0.43 | 0.43 | 93 | 1003.3 |
| 20260509212843 | 10 | 250 | 0.0 | 0.0 | 1.60 | 2.21 | 0.43 | 92 | 1003.2 |
| 20260509212340 | 10 | 249 | 0.0 | 0.0 | 1.60 | 2.21 | 0.43 | 92 | 1003.4 |
| 20260509211856 | 10 | 246 | 0.0 | 0.0 | 1.60 | 2.21 | 0.43 | 92 | 1003.4 |
| 20260509211554 | 10 | 252 | 0.0 | 0.0 | 0.33 | 0.43 | 0.43 | 91 | 1003.4 |
| 20260509211333 | 10 | 253 | 0.0 | 0.0 | 1.60 | 2.21 | 0.43 | 91 | 1003.4 |
| 20260509210830 | 10 | 243 | 0.0 | 0.0 | 1.60 | 2.21 | 0.43 | 90 | 1003.9 |
| 20260509210342 | 10 | 250 | 0.0 | 0.0 | 1.60 | 2.21 | 0.43 | 90 | 1003.8 |
| 20260509210008 | 11 | 264 | 0.0 | 0.0 | 0.30 | 0.43 | 0.43 | 89 | 1003.3 |
| 20260509205841 | 11 | 264 | 0.0 | 0.0 | 1.50 | 2.11 | 0.43 | 88 | 1003.2 |
| 20260509205407 | 11 | 288 | 0.0 | 0.0 | 1.40 | 2.01 | 0.41 | 87 | 1003.7 |
| 20260509204843 | 12 | 310 | 0.0 | 0.0 | 0.89 | 1.50 | 0.30 | 87 | 1004.1 |
| 20260509204526 | 12 | 245 | 0.0 | 0.0 | 0.08 | 0.20 | 0.20 | 88 | 1003.9 |
| 20260509204340 | 13 | 258 | 0.0 | 0.0 | 0.10 | 0.71 | 0.15 | 87 | 1003.2 |
| 20260509203857 | 13 | 286 | 0.0 | 0.0 | 0.00 | 0.61 | 0.13 | 86 | 1003.0 |
| 20260509203330 | 13 | 256 | 0.0 | 0.0 | 0.00 | 0.61 | 0.13 | 85 | 1002.6 |
| 20260509203031 | 13 | 247 | 0.0 | 0.0 | 0.00 | 0.13 | 0.13 | 84 | 1002.3 |
| 20260509202848 | 13 | 244 | 0.0 | 0.0 | 0.00 | 0.61 | 0.13 | 84 | 1002.4 |
| 20260509202344 | 13 | 243 | 0.0 | 0.0 | 0.00 | 0.61 | 0.13 | 83 | 1002.4 |
| 20260509201839 | 13 | 224 | 0.0 | 0.0 | 0.00 | 0.61 | 0.13 | 83 | 1002.2 |
| 20260509201607 | 13 | 217 | 0.0 | 0.0 | 0.00 | 0.13 | 0.13 | 83 | 1002.1 |
| 20260509201401 | 13 | 229 | 0.0 | 0.0 | 0.00 | 0.61 | 0.13 | 83 | 1002.3 |
| 20260509200836 | 14 | 254 | 0.0 | 0.0 | 0.00 | 0.61 | 0.13 | 83 | 1002.3 |
| 20260509200332 | 14 | 256 | 0.0 | 0.0 | 0.00 | 0.61 | 0.13 | 82 | 1002.2 |
| 20260509200109 | 14 | 246 | 0.0 | 0.0 | 0.00 | 0.13 | 0.13 | 82 | 1002.2 |
| 20260509195829 | 14 | 260 | 0.0 | 0.0 | 0.00 | 0.61 | 0.13 | 82 | 1002.4 |
| 20260509195346 | 15 | 220 | 0.0 | 0.0 | 0.00 | 0.61 | 0.13 | 82 | 1002.4 |
| 20260509194841 | 15 | 212 | 0.0 | 0.0 | 0.00 | 0.61 | 0.13 | 81 | 1002.5 |
| 20260509194534 | 14 | 213 | 0.0 | 0.0 | 0.00 | 0.13 | 0.13 | 81 | 1002.5 |
| 20260509194339 | 15 | 225 | 0.0 | 0.0 | 0.00 | 0.61 | 0.13 | 81 | 1002.5 |
| 20260509193835 | 15 | 247 | 0.0 | 0.0 | 0.00 | 0.61 | 0.13 | 81 | 1002.7 |
| 20260509193352 | 15 | 226 | 0.0 | 0.0 | 0.00 | 0.61 | 0.13 | 82 | 1002.4 |
| 20260509193037 | 15 | 256 | 0.0 | 0.0 | 0.00 | 0.13 | 0.13 | 82 | 1002.5 |
| 20260509192829 | 15 | 233 | 0.0 | 0.0 | 0.00 | 0.61 | 0.13 | 82 | 1002.7 |
| 20260509192409 | 15 | 216 | 0.0 | 0.0 | 0.00 | 0.61 | 0.13 | 82 | 1002.4 |
| 20260509191846 | 15 | 256 | 0.0 | 0.0 | 0.00 | 0.61 | 0.13 | 82 | 1002.6 |
| 20260509191555 | 15 | 158 | 0.0 | 0.0 | 0.00 | 0.13 | 0.13 | 82 | 1002.6 |
| 20260509191340 | 15 | 224 | 0.0 | 0.0 | 0.00 | 0.61 | 0.13 | 83 | 1002.8 |
| 20260509190906 | 14 | 231 | 0.0 | 0.0 | 0.00 | 0.61 | 0.13 | 84 | 1003.0 |
| 20260509190342 | 14 | 171 | 0.0 | 0.0 | 0.00 | 0.61 | 0.13 | 85 | 1003.0 |
| 20260509190054 | 13 | 219 | 0.0 | 0.0 | 0.00 | 0.13 | 0.13 | 85 | 1003.0 |
| 20260509185839 | 13 | 180 | 0.0 | 0.0 | 0.00 | 0.61 | 0.13 | 85 | 1003.2 |
| 20260509185336 | 13 | 290 | 0.0 | 0.0 | 0.00 | 0.61 | 0.13 | 85 | 1003.5 |
| 20260509184851 | 13 | 219 | 0.0 | 0.0 | 0.00 | 0.61 | 0.13 | 85 | 1003.5 |
| 20260509184558 | 13 | 120 | 0.0 | 0.0 | 0.00 | 0.13 | 0.13 | 85 | 1003.4 |
| 20260509184344 | 13 | 251 | 0.0 | 0.0 | 0.00 | 0.61 | 0.13 | 84 | 1003.7 |
| 20260509183841 | 13 | 235 | 0.0 | 0.0 | 0.00 | 0.61 | 0.13 | 83 | 1003.9 |
| 20260509183406 | 14 | 227 | 0.0 | 0.0 | 0.00 | 0.61 | 0.13 | 83 | 1004.0 |
| 20260509183002 | 14 | 222 | 0.0 | 0.0 | 0.00 | 0.13 | 0.13 | 83 | 1004.0 |
| 20260509182841 | 14 | 225 | 0.0 | 0.0 | 0.00 | 0.61 | 0.13 | 83 | 1003.8 |
| 20260509182358 | 15 | 258 | 0.0 | 0.0 | 0.00 | 0.61 | 0.13 | 83 | 1003.7 |
| 20260509181836 | 15 | 229 | 0.0 | 0.0 | 0.00 | 0.61 | 0.13 | 82 | 1003.8 |
| 20260509181519 | 15 | 241 | 0.0 | 0.0 | 0.00 | 0.13 | 0.13 | 82 | 1003.8 |
| 20260509181333 | 15 | 249 | 0.0 | 0.0 | 0.00 | 0.61 | 0.13 | 81 | 1003.7 |
| 20260509180830 | 15 | 249 | 0.0 | 0.0 | 0.00 | 0.61 | 0.13 | 81 | 1003.5 |
| 20260509180345 | 16 | 228 | 0.0 | 0.0 | 0.00 | 0.61 | 0.13 | 80 | 1003.4 |
| 20260509180042 | 15 | 172 | 0.0 | 0.0 | 0.00 | 0.13 | 0.13 | 81 | 1003.6 |
| 20260509175844 | 16 | 197 | 0.0 | 0.0 | 0.00 | 0.61 | 0.13 | 81 | 1003.5 |
| 20260509175337 | 16 | 170 | 0.0 | 0.0 | 0.00 | 0.61 | 0.13 | 81 | 1003.6 |
| 20260509174835 | 16 | 224 | 0.0 | 0.0 | 0.00 | 0.61 | 0.13 | 81 | 1003.7 |
| 20260509174518 | 15 | 147 | 0.0 | 0.0 | 0.00 | 0.13 | 0.13 | 80 | 1003.7 |
| 20260509174331 | 16 | 217 | 0.0 | 0.0 | 0.00 | 0.61 | 0.13 | 80 | 1003.6 |
| 20260509173829 | 16 | 237 | 0.0 | 0.0 | 0.00 | 0.61 | 0.13 | 79 | 1003.7 |
| 20260509173344 | 16 | 270 | 0.0 | 0.0 | 0.00 | 0.61 | 0.13 | 80 | 1003.8 |
| 20260509173036 | 15 | 247 | 0.0 | 0.0 | 0.00 | 0.13 | 0.13 | 79 | 1003.9 |
| 20260509172840 | 16 | 187 | 0.0 | 0.0 | 0.00 | 0.61 | 0.13 | 81 | 1004.1 |
| 20260509172335 | 16 | 235 | 0.0 | 0.0 | 0.00 | 0.61 | 0.13 | 79 | 1004.1 |
| 20260509171853 | 16 | 257 | 0.0 | 0.0 | 0.00 | 0.61 | 0.13 | 81 | 1004.2 |
| 20260509171533 | 15 | 220 | 0.0 | 0.0 | 0.00 | 0.13 | 0.13 | 82 | 1004.0 |
| 20260509171329 | 15 | 156 | 0.0 | 0.0 | 0.00 | 0.61 | 0.13 | 82 | 1004.1 |
| 20260509170845 | 15 | 234 | 0.0 | 0.0 | 0.00 | 0.61 | 0.13 | 81 | 1004.1 |
| 20260509170339 | 15 | 251 | 0.0 | 0.0 | 0.00 | 0.61 | 0.13 | 82 | 1004.4 |
| 20260509170058 | 15 | 197 | 0.0 | 0.0 | 0.00 | 0.13 | 0.13 | 81 | 1004.3 |
| 20260509165834 | 15 | 195 | 0.0 | 0.0 | 0.00 | 0.61 | 0.13 | 80 | 1004.4 |
| 20260509165330 | 15 | 189 | 0.0 | 0.0 | 0.00 | 0.61 | 0.13 | 81 | 1004.5 |
| 20260509164847 | 15 | 179 | 0.0 | 0.0 | 0.00 | 0.61 | 0.13 | 82 | 1004.6 |
| 20260509164509 | 15 | 214 | 0.0 | 0.0 | 0.00 | 0.13 | 0.13 | 81 | 1004.5 |
| 20260509164344 | 15 | 258 | 0.0 | 0.0 | 0.00 | 0.61 | 0.13 | 81 | 1004.6 |
| 20260509163843 | 15 | 149 | 0.0 | 0.0 | 0.00 | 0.61 | 0.13 | 81 | 1004.6 |
| 20260509163340 | 15 | 195 | 0.0 | 0.0 | 0.00 | 0.61 | 0.13 | 82 | 1004.5 |
| 20260509163041 | 14 | 160 | 0.0 | 0.0 | 0.00 | 0.13 | 0.13 | 82 | 1004.7 |
| 20260509162837 | 15 | 252 | 0.0 | 0.0 | 0.00 | 0.61 | 0.13 | 83 | 1005.0 |
| 20260509162334 | 14 | 230 | 0.0 | 0.0 | 0.00 | 0.61 | 0.13 | 82 | 1005.4 |
| 20260509161831 | 14 | 243 | 0.0 | 0.0 | 0.00 | 0.61 | 0.13 | 82 | 1005.4 |
| 20260509161503 | 14 | 256 | 0.0 | 0.0 | 0.00 | 0.13 | 0.13 | 83 | 1005.3 |
| 20260509161346 | 14 | 264 | 0.0 | 0.0 | 0.00 | 0.61 | 0.13 | 82 | 1005.3 |
| 20260509160856 | 14 | 208 | 0.0 | 0.0 | 0.00 | 0.61 | 0.13 | 82 | 1005.5 |
| 20260509160333 | 14 | 225 | 0.0 | 0.0 | 0.00 | 0.61 | 0.13 | 81 | 1005.6 |
| 20260509160019 | 14 | 285 | 0.0 | 0.0 | 0.00 | 0.13 | 0.13 | 81 | 1005.5 |
| 20260509155832 | 15 | 244 | 0.0 | 0.0 | 0.00 | 0.61 | 0.13 | 80 | 1005.4 |
| 20260509155329 | 15 | 245 | 0.0 | 0.0 | 0.00 | 0.61 | 0.13 | 81 | 1005.4 |
| 20260509154846 | 15 | 220 | 0.0 | 0.0 | 0.00 | 0.61 | 0.13 | 83 | 1005.3 |
| 20260509154542 | 14 | 230 | 0.0 | 0.0 | 0.00 | 0.13 | 0.13 | 83 | 1005.2 |
| 20260509154344 | 14 | 226 | 0.0 | 0.0 | 0.00 | 0.61 | 0.13 | 85 | 1005.2 |
| 20260509153840 | 13 | 195 | 0.0 | 0.0 | 0.00 | 0.61 | 0.13 | 85 | 1005.3 |
| 20260509153338 | 13 | 200 | 0.0 | 0.0 | 0.00 | 0.61 | 0.13 | 86 | 1005.4 |
| 20260509153105 | 13 | 200 | 0.0 | 0.0 | 0.00 | 0.13 | 0.13 | 86 | 1005.3 |
| 20260509152835 | 13 | 228 | 0.0 | 0.0 | 0.00 | 0.61 | 0.13 | 85 | 1005.4 |
| 20260509152331 | 13 | 225 | 0.0 | 0.0 | 0.00 | 0.61 | 0.13 | 85 | 1005.6 |
| 20260509151831 | 13 | 178 | 0.0 | 0.0 | 0.00 | 0.61 | 0.13 | 86 | 1005.6 |
| 20260509151536 | 13 | 210 | 0.0 | 0.0 | 0.00 | 0.13 | 0.13 | 86 | 1005.6 |
| 20260509151344 | 13 | 231 | 0.0 | 0.0 | 0.00 | 0.61 | 0.13 | 86 | 1005.6 |
| 20260509150908 | 13 | 169 | 0.0 | 0.0 | 0.00 | 0.61 | 0.13 | 87 | 1005.4 |
| 20260509150345 | 13 | 80 | 0.0 | 0.0 | 0.00 | 0.61 | 0.13 | 87 | 1005.4 |
| 20260509150043 | 13 | 80 | 0.0 | 0.0 | 0.00 | 0.13 | 0.13 | 87 | 1005.5 |
| 20260509145840 | 13 | 143 | 0.0 | 0.0 | 0.00 | 0.61 | 0.13 | 87 | 1005.5 |
| 20260509145338 | 13 | 213 | 0.0 | 0.0 | 0.00 | 0.61 | 0.13 | 87 | 1005.5 |
| 20260509144834 | 13 | 211 | 0.0 | 0.0 | 0.00 | 0.61 | 0.13 | 88 | 1005.6 |
| 20260509144501 | 13 | 239 | 0.0 | 0.0 | 0.00 | 0.13 | 0.13 | 88 | 1005.6 |
| 20260509144332 | 13 | 268 | 0.0 | 0.0 | 0.00 | 0.61 | 0.13 | 90 | 1005.6 |
| 20260509143830 | 12 | 206 | 0.0 | 0.0 | 0.00 | 0.61 | 0.13 | 92 | 1005.4 |
| 20260509143347 | 12 | 224 | 0.0 | 0.0 | 0.00 | 0.61 | 0.13 | 92 | 1005.5 |
| 20260509143034 | 12 | 256 | 0.0 | 0.0 | 0.00 | 0.13 | 0.13 | 92 | 1005.6 |
| 20260509142845 | 12 | 243 | 0.0 | 0.0 | 0.00 | 0.61 | 0.13 | 93 | 1005.6 |
| 20260509142340 | 12 | 247 | 0.0 | 0.0 | 0.00 | 0.61 | 0.13 | 93 | 1005.6 |
| 20260509141837 | 12 | 241 | 0.0 | 0.0 | 0.00 | 0.61 | 0.13 | 93 | 1005.6 |
| 20260509141551 | 11 | 240 | 0.0 | 0.0 | 0.00 | 0.13 | 0.13 | 93 | 1005.6 |
| 20260509141335 | 11 | 248 | 0.0 | 0.0 | 0.00 | 0.61 | 0.13 | 94 | 1005.6 |
| 20260509140834 | 11 | 235 | 0.0 | 0.0 | 0.00 | 0.61 | 0.13 | 95 | 1005.6 |
| 20260509140332 | 11 | 179 | 0.0 | 0.0 | 0.00 | 0.61 | 0.13 | 96 | 1005.5 |
| 20260509140011 | 11 | 151 | 0.0 | 0.0 | 0.00 | 0.13 | 0.13 | 96 | 1005.6 |
| 20260509135849 | 11 | 174 | 0.0 | 0.0 | 0.00 | 0.61 | 0.13 | 96 | 1005.5 |
| 20260509135344 | 11 | 191 | 0.0 | 0.0 | 0.00 | 0.61 | 0.13 | 96 | 1005.7 |
| 20260509134842 | 11 | 249 | 0.0 | 0.0 | 0.00 | 0.61 | 0.13 | 96 | 1005.6 |
| 20260509134526 | 11 | 241 | 0.0 | 0.0 | 0.00 | 0.13 | 0.13 | 96 | 1005.7 |
| 20260509134339 | 11 | 201 | 0.0 | 0.0 | 0.00 | 0.61 | 0.13 | 97 | 1005.6 |
| 20260509133836 | 11 | 182 | 0.0 | 0.0 | 0.00 | 0.61 | 0.13 | 96 | 1005.6 |
| 20260509133334 | 11 | 259 | 0.0 | 0.0 | 0.00 | 0.61 | 0.13 | 96 | 1005.7 |
| 20260509133051 | 11 | 231 | 0.0 | 0.0 | 0.00 | 0.13 | 0.13 | 97 | 1005.8 |
| 20260509132847 | 11 | 176 | 0.0 | 0.0 | 0.00 | 0.61 | 0.13 | 96 | 1005.6 |
| 20260509132344 | 11 | 214 | 0.0 | 0.0 | 0.00 | 0.61 | 0.13 | 96 | 1005.7 |
| 20260509131841 | 11 | 215 | 0.0 | 0.0 | 0.00 | 0.61 | 0.13 | 97 | 1005.8 |